Regional Weather Roundup
Issued by NWS

Home | Current Version | Previous Version | Graphics & Text | Print | Product List | Glossary On
Versions: 1 2 3 4 5 6 7 8 9 10 11 12 13 14 15 16 17 18 19 20 21 22 23 24 25 26 27 28 29 30 31 32 33 34 35 36 37 38 39 40 41 42 43 44 45 46 47 48 49 50
000
ASUS45 KBOI 281110
RWRID
WEATHER ROUNDUP FOR IDAHO
NATIONAL WEATHER SERVICE BOISE ID
400 AM MST FRI NOV 28 2014

NOTE: "FAIR" INDICATES FEW OR NO CLOUDS BELOW 12000 FEET
WITH NO SIGNIFICANT WEATHER AND/OR OBSTRUCTIONS TO VISIBILITY

IDZ012-014-281200-
SOUTHWEST IDAHO


CITY           SKY/WX    TMP DP  RH WIND       PRES   REMARKS
BOISE          CLOUDY    45  37  73 E6        29.90F
CALDWELL       NOT AVBL
MOUNTAIN HOME  CLOUDY    38  38 100 SE8       29.92F WCI  32
$$

IDZ016-017-281200-
SOUTHCENTRAL IDAHO


CITY           SKY/WX    TMP DP  RH WIND       PRES   REMARKS
BURLEY         CLOUDY    54  23  30 SW20G28   29.95F
JEROME         CLOUDY    45  28  51 SE5       29.97F
TWIN FALLS     CLOUDY    54  26  34 S13       29.95F
$$

IDZ019>023-281200-
SOUTHEAST IDAHO


CITY           SKY/WX    TMP DP  RH WIND       PRES   REMARKS
IDAHO FALLS    MOCLDY    39  28  64 SW9       29.96F WCI  33
POCATELLO      CLEAR     42  26  53 N7        29.97F
REXBURG        MOCLDY    46  25  43 S13       29.94F
$$

IDZ006-010-011-018-031-032-281200-
CENTRAL IDAHO MOUNTAINS


CITY           SKY/WX    TMP DP  RH WIND       PRES   REMARKS
MCCALL         CLOUDY    37  35  92 N5        29.89F WCI  33
HAILEY         CLOUDY    36  32  87 NW7       30.00F WCI  30
STANLEY          N/A     44  17  33 S6        29.94F
SALMON         CLOUDY    45  30  57 SE9       29.84F
CHALLIS        MOCLDY    36  29  75 CALM      29.89F
$$

IDZ002-004-006-007-026-281200-
NORTHERN IDAHO


CITY           SKY/WX    TMP DP  RH WIND       PRES   REMARKS
LEWISTON       CLOUDY    57  43  59 S22       29.71F
LOWELL           N/A     42  40  92 N3        29.81F
COEUR D`ALENE  CLOUDY    52  41  66 W14G30    29.65F
MULLAN PASS    CLOUDY    36  36 100 SW12G25   29.69F WCI  28
$$



USA.gov is the U.S. government's official web portal to all federal, state and local government web resources and services.